Flag for Australia Weather past 2 weeks in Darwin, Northern Territory, Australia

Now
88 °F

Sunny.


Feels Like: 84 °F
Forecast: 72 / 89 °F
Wind: 16 mph from Southeast

Location: Darwin Airport

Current Time: Jul 28, 2015 at 4:10:27 PM

Latest Report: Jul 28, 2015 at 3:30 PM


Visibility: 10 mi

Pressure: 29.95 "Hg

Humidity: 21%

Dew point: 43 °F

Location of DarwinLocation

Historic Weather in Darwin — Graph

°F

Darwin temperature yesterday

Maximum temperature yesterday: 93 °F (at 1:22 PM)
Minimum temperature yesterday: 75 °F (at 12:30 AM)
Average temperature yesterday: 81 °F

Past Weeks' High & Low Weather Summary

 TemperatureHumidityPressure
High93 °F (Jul 27, 1:22 PM)100% (Jul 24, 4:30 AM)30.07 "Hg (Jul 24, 4:30 AM)
Low59 °F (Jul 14, 6:30 AM)8% (Jul 13, 4:00 PM)29.89 "Hg (Jul 25, 3:30 PM)
Average74 °F53%29.99 "Hg
* Reported Jul 13 2:30 PM — Jul 28 3:00 PM, Darwin, Weather by CustomWeather, © 2015

Note: Actual official high and low records may vary slightly from our data, if they occured in-between our weather recording intervals... More about our weather records

Advertising

Darwin weather history for previous 24 hours

 ConditionsComfort  
Time TempWeatherWind HumidityBarometerVisibility
3:00 PM
Tue, Jul 28
88 °FSunny.15 mph21%29.95 "Hg10 mi
2:30 PM88 °FSunny.17 mph21%29.98 "Hg10 mi
2:00 PM88 °FSunny.16 mph21%29.98 "Hg10 mi
1:30 PM88 °FSunny.20 mph19%30.01 "Hg10 mi
1:00 PM86 °FSunny.21 mph20%30.01 "Hg10 mi
12:30 PM86 °FSunny.17 mph19%30.04 "Hg10 mi
12:00 PM84 °FSunny.18 mph22%30.04 "Hg10 mi
11:30 AM82 °FSunny.20 mph21%30.07 "Hg10 mi
11:00 AM82 °FSunny.18 mph21%30.07 "Hg10 mi
10:30 AM79 °FSunny.18 mph24%30.07 "Hg10 mi
10:00 AM79 °FSunny.17 mph26%30.07 "Hg10 mi
9:30 AM77 °FSunny.17 mph30%30.07 "Hg10 mi
9:00 AM75 °FSunny.14 mph31%30.07 "Hg10 mi
8:30 AM73 °FSunny.13 mph38%30.07 "Hg10 mi
8:00 AM72 °FSunny.13 mph41%30.07 "Hg10 mi
7:30 AM70 °FClear.12 mph46%30.04 "Hg10 mi
7:00 AM70 °FClear.12 mph50%30.04 "Hg10 mi
6:30 AM72 °FClear.12 mph47%30.04 "Hg10 mi
6:00 AM72 °FClear.10 mph47%30.04 "Hg10 mi
5:30 AM72 °FClear.12 mph47%30.04 "Hg10 mi
5:00 AM73 °FClear.15 mph44%30.01 "Hg10 mi
4:30 AM73 °FClear.14 mph47%30.01 "Hg10 mi
4:00 AM73 °FClear.13 mph57%30.01 "Hg10 mi
3:30 AM73 °FClear.9 mph65%30.01 "Hg10 mi
3:00 AM70 °FClear.5 mph94%30.01 "Hg10 mi
2:30 AM73 °FClear.10 mph89%30.01 "Hg10 mi
2:00 AM70 °FClear.3 mph88%30.01 "Hg10 mi
1:30 AM70 °FClear.5 mph88%30.01 "Hg10 mi
1:00 AM72 °FClear.5 mph83%30.01 "Hg10 mi
12:30 AM73 °FClear.7 mph78%30.01 "Hg10 mi
12:00 AM73 °FClear.5 mph78%30.04 "Hg10 mi
11:30 PM
Mon, Jul 27
77 °FClear.7 mph69%30.04 "Hg10 mi
11:00 PM77 °FClear.7 mph69%30.01 "Hg10 mi
10:30 PM77 °FClear.6 mph65%30.01 "Hg10 mi
10:00 PM79 °FClear.7 mph61%30.01 "Hg10 mi
9:30 PM77 °FClear.6 mph65%30.01 "Hg10 mi
9:00 PM77 °FClear.6 mph65%30.01 "Hg10 mi
8:30 PM79 °FClear.7 mph65%29.98 "Hg10 mi
8:00 PM81 °FClear.8 mph62%29.98 "Hg10 mi
7:30 PM81 °FClear.10 mph62%29.98 "Hg10 mi
7:00 PM82 °FSunny.9 mph55%29.95 "Hg10 mi
6:30 PM82 °FWarm.10 mph51%29.95 "HgN/A
6:00 PM84 °FSunny.12 mph51%29.95 "Hg10 mi
5:30 PM86 °FSunny.15 mph49%29.92 "Hg10 mi
5:00 PM86 °FSunny.15 mph49%29.92 "Hg10 mi
4:30 PM88 °FSunny.16 mph46%29.92 "Hg10 mi
4:00 PM88 °FSunny.15 mph46%29.92 "Hg10 mi
Weather by CustomWeather, © 2015

See weather overviewHow to use our weather pages